| time (UTC) | temp F | wind direction | speed MPH | gust MPH | rain 1hr in | rain 24hr in | rain mn in | humidity % | barometer mb |
| 20260505092743 | 56 | 190 | 0.0 | 0.0 | 0.00 | 0.00 | 0.00 | 82 | 1010.3 |
| 20260505092225 | 56 | 190 | 0.0 | 0.0 | 0.00 | 0.00 | 0.00 | 82 | 1010.4 |
| 20260505091717 | 56 | 190 | 0.0 | 0.0 | 0.00 | 0.00 | 0.00 | 81 | 1010.5 |
| 20260505091200 | 57 | 190 | 0.0 | 0.0 | 0.00 | 0.00 | 0.00 | 81 | 1010.4 |
| 20260505090651 | 57 | 190 | 0.0 | 0.0 | 0.00 | 0.00 | 0.00 | 80 | 1010.5 |
| 20260505090157 | 57 | 190 | 0.0 | 0.0 | 0.00 | 0.00 | 0.00 | 80 | 1010.5 |
| 20260505085649 | 57 | 190 | 0.0 | 0.0 | 0.00 | 0.00 | 0.00 | 80 | 1010.4 |
| 20260505085146 | 58 | 190 | 0.0 | 0.0 | 0.00 | 0.00 | 0.00 | 79 | 1010.2 |
| 20260505084637 | 58 | 190 | 0.0 | 0.0 | 0.00 | 0.00 | 0.00 | 79 | 1010.3 |
| 20260505084132 | 58 | 190 | 0.0 | 0.0 | 0.00 | 0.00 | 0.00 | 79 | 1010.2 |
| 20260505083640 | 58 | 190 | 0.0 | 0.0 | 0.00 | 0.00 | 0.00 | 78 | 1010.1 |
| 20260505083138 | 58 | 190 | 0.0 | 0.0 | 0.00 | 0.00 | 0.00 | 78 | 1010.1 |
| 20260505082638 | 58 | 190 | 0.0 | 0.0 | 0.00 | 0.00 | 0.00 | 77 | 1010.1 |
| 20260505082137 | 58 | 190 | 0.0 | 0.0 | 0.00 | 0.00 | 0.00 | 77 | 1010.0 |
| 20260505081622 | 59 | 190 | 0.0 | 0.0 | 0.00 | 0.00 | 0.00 | 77 | 1010.0 |
| 20260505081125 | 59 | 190 | 0.0 | 0.0 | 0.00 | 0.00 | 0.00 | 76 | 1010.0 |
| 20260505080625 | 59 | 190 | 0.0 | 0.0 | 0.00 | 0.00 | 0.00 | 75 | 1009.9 |
| 20260505080115 | 60 | 190 | 0.0 | 0.0 | 0.00 | 0.00 | 0.00 | 74 | 1009.8 |
| 20260505075600 | 60 | 190 | 0.0 | 0.0 | 0.00 | 0.00 | 0.00 | 74 | 1009.9 |
| 20260505075105 | 60 | 190 | 0.0 | 0.0 | 0.00 | 0.00 | 0.00 | 72 | 1009.9 |
| 20260505074600 | 60 | 190 | 0.0 | 0.0 | 0.00 | 0.00 | 0.00 | 72 | 1009.8 |
| 20260505074105 | 60 | 190 | 0.0 | 0.0 | 0.00 | 0.00 | 0.00 | 72 | 1009.9 |
| 20260505073602 | 61 | 190 | 0.0 | 0.0 | 0.00 | 0.00 | 0.00 | 73 | 1010.0 |
| 20260505073049 | 61 | 190 | 0.0 | 0.0 | 0.00 | 0.00 | 0.00 | 72 | 1009.9 |
| 20260505072553 | 61 | 190 | 0.0 | 0.0 | 0.00 | 0.00 | 0.00 | 71 | 1009.9 |
| 20260505072052 | 61 | 123 | 0.0 | 0.0 | 0.00 | 0.00 | 0.00 | 72 | 1009.9 |
| 20260505071553 | 61 | 140 | 0.0 | 0.0 | 0.00 | 0.00 | 0.00 | 72 | 1009.9 |
| 20260505071050 | 61 | 140 | 0.0 | 0.0 | 0.00 | 0.00 | 0.00 | 72 | 1009.8 |
| 20260505070554 | 60 | 140 | 0.0 | 0.0 | 0.00 | 0.00 | 0.00 | 72 | 1009.9 |
| 20260505070043 | 60 | 140 | 0.0 | 0.0 | 0.00 | 0.00 | 0.00 | 73 | 1010.0 |
| 20260505065551 | 60 | 140 | 0.0 | 0.0 | 0.00 | 0.00 | 0.00 | 74 | 1010.2 |
| 20260505065033 | 59 | 140 | 0.0 | 0.0 | 0.00 | 0.00 | 0.00 | 74 | 1010.2 |
| 20260505064514 | 59 | 140 | 0.0 | 0.0 | 0.00 | 0.00 | 0.00 | 75 | 1010.3 |
| 20260505063953 | 59 | 140 | 0.0 | 0.0 | 0.00 | 0.00 | 0.00 | 76 | 1010.4 |
| 20260505063441 | 59 | 140 | 0.0 | 0.0 | 0.00 | 0.00 | 0.00 | 76 | 1010.5 |
| 20260505062930 | 59 | 140 | 0.0 | 0.0 | 0.00 | 0.00 | 0.00 | 75 | 1010.6 |
| 20260505062414 | 60 | 140 | 0.0 | 0.0 | 0.00 | 0.00 | 0.00 | 74 | 1010.7 |
| 20260505061919 | 60 | 140 | 0.0 | 0.0 | 0.00 | 0.00 | 0.00 | 74 | 1010.7 |
| 20260505061403 | 60 | 140 | 0.0 | 0.0 | 0.00 | 0.00 | 0.00 | 73 | 1010.7 |
| 20260505060848 | 60 | 140 | 0.0 | 0.0 | 0.00 | 0.00 | 0.00 | 72 | 1010.8 |
| 20260505060329 | 61 | 140 | 0.0 | 0.0 | 0.00 | 0.00 | 0.00 | 72 | 1010.9 |
| 20260505055815 | 61 | 140 | 0.0 | 0.0 | 0.00 | 0.00 | 0.00 | 72 | 1011.0 |
| 20260505055304 | 61 | 140 | 0.0 | 0.0 | 0.00 | 0.00 | 0.00 | 72 | 1011.0 |
| 20260505054742 | 60 | 140 | 0.0 | 0.0 | 0.00 | 0.00 | 0.00 | 72 | 1011.1 |
| 20260505054243 | 61 | 140 | 0.0 | 0.0 | 0.00 | 0.00 | 0.00 | 72 | 1011.2 |
| 20260505053750 | 61 | 140 | 0.0 | 0.0 | 0.00 | 0.00 | 0.00 | 72 | 1011.2 |
| 20260505053238 | 61 | 140 | 0.0 | 0.0 | 0.00 | 0.00 | 0.00 | 72 | 1011.2 |
| 20260505052721 | 60 | 140 | 0.0 | 0.0 | 0.00 | 0.00 | 0.00 | 72 | 1011.2 |
| 20260505052225 | 60 | 141 | 0.0 | 0.0 | 0.00 | 0.00 | 0.00 | 72 | 1011.2 |
| 20260505051706 | 60 | 141 | 0.0 | 1.0 | 0.00 | 0.00 | 0.00 | 73 | 1011.2 |
| 20260505051148 | 60 | 167 | 0.0 | 0.0 | 0.00 | 0.00 | 0.00 | 72 | 1011.3 |
| 20260505050638 | 60 | 167 | 0.0 | 0.0 | 0.00 | 0.00 | 0.00 | 72 | 1011.2 |
| 20260505050128 | 61 | 167 | 0.0 | 0.0 | 0.00 | 0.00 | 0.00 | 71 | 1011.3 |
| 20260505041538 | 64 | 167 | 0.0 | 0.0 | 0.00 | 0.00 | 0.00 | 66 | 1011.3 |
| 20260505041040 | 64 | 167 | 0.0 | 0.0 | 0.00 | 0.00 | 0.00 | 65 | 1011.3 |
| 20260505040522 | 65 | 167 | 0.0 | 0.0 | 0.00 | 0.00 | 0.00 | 63 | 1011.3 |
| 20260505040017 | 65 | 167 | 0.0 | 0.0 | 0.00 | 0.00 | 0.00 | 62 | 1011.3 |
| 20260505035512 | 65 | 167 | 0.0 | 0.0 | 0.00 | 0.00 | 0.00 | 60 | 1011.3 |
| 20260505035001 | 66 | 167 | 0.0 | 0.0 | 0.00 | 0.00 | 0.00 | 60 | 1011.3 |
| 20260505034509 | 66 | 167 | 0.0 | 0.0 | 0.00 | 0.00 | 0.00 | 59 | 1011.2 |
| 20260505033956 | 66 | 167 | 0.0 | 0.0 | 0.00 | 0.00 | 0.00 | 59 | 1011.1 |
| 20260505033444 | 67 | 172 | 0.0 | 0.0 | 0.00 | 0.00 | 0.00 | 58 | 1011.1 |
| 20260505032923 | 67 | 172 | 0.0 | 0.0 | 0.00 | 0.00 | 0.00 | 57 | 1011.1 |
| 20260505032429 | 67 | 172 | 0.0 | 0.0 | 0.00 | 0.00 | 0.00 | 57 | 1011.0 |
| 20260505031914 | 67 | 172 | 0.0 | 0.0 | 0.00 | 0.00 | 0.00 | 57 | 1010.9 |
| 20260505031352 | 67 | 152 | 0.0 | 0.0 | 0.00 | 0.00 | 0.00 | 56 | 1010.8 |
| 20260505030857 | 67 | 152 | 0.0 | 0.0 | 0.00 | 0.00 | 0.00 | 56 | 1010.8 |
| 20260505030349 | 67 | 134 | 0.0 | 0.0 | 0.00 | 0.00 | 0.00 | 56 | 1010.9 |
| 20260505025846 | 68 | 134 | 0.0 | 0.0 | 0.00 | 0.00 | 0.00 | 56 | 1010.7 |
| 20260505025345 | 68 | 134 | 0.0 | 0.0 | 0.00 | 0.00 | 0.00 | 55 | 1010.6 |
| 20260505024833 | 68 | 199 | 0.0 | 0.0 | 0.00 | 0.00 | 0.00 | 54 | 1010.6 |
| 20260505024330 | 69 | 156 | 0.0 | 0.0 | 0.00 | 0.00 | 0.00 | 54 | 1010.6 |
| 20260505023825 | 69 | 148 | 0.0 | 0.0 | 0.00 | 0.00 | 0.00 | 54 | 1010.6 |
| 20260505023319 | 69 | 184 | 0.0 | 0.0 | 0.00 | 0.00 | 0.00 | 53 | 1010.6 |
| 20260505022812 | 69 | 167 | 0.0 | 0.0 | 0.00 | 0.00 | 0.00 | 53 | 1010.5 |
| 20260505022310 | 69 | 173 | 0.0 | 0.0 | 0.00 | 0.00 | 0.00 | 53 | 1010.5 |
| 20260505021750 | 69 | 162 | 0.0 | 0.0 | 0.00 | 0.00 | 0.00 | 53 | 1010.4 |
| 20260505021254 | 69 | 157 | 0.0 | 0.0 | 0.00 | 0.00 | 0.00 | 53 | 1010.3 |
| 20260505020757 | 69 | 181 | 0.0 | 0.0 | 0.00 | 0.00 | 0.00 | 53 | 1010.2 |
| 20260505020243 | 69 | 179 | 0.0 | 0.0 | 0.00 | 0.00 | 0.00 | 53 | 1010.1 |
| 20260505015723 | 70 | 188 | 0.0 | 0.0 | 0.00 | 0.00 | 0.00 | 53 | 1010.0 |
| 20260505015207 | 70 | 195 | 0.0 | 0.0 | 0.00 | 0.00 | 0.00 | 53 | 1010.0 |
| 20260505014708 | 70 | 195 | 0.0 | 0.0 | 0.00 | 0.00 | 0.00 | 53 | 1010.0 |
| 20260505014216 | 70 | 195 | 0.0 | 0.0 | 0.00 | 0.00 | 0.00 | 53 | 1009.9 |
| 20260505013704 | 70 | 145 | 0.0 | 0.0 | 0.00 | 0.00 | 0.00 | 52 | 1009.9 |
| 20260505013208 | 70 | 191 | 0.0 | 0.0 | 0.00 | 0.00 | 0.00 | 52 | 1009.9 |
| 20260505012657 | 70 | 191 | 0.0 | 0.0 | 0.00 | 0.00 | 0.00 | 53 | 1009.8 |
| 20260505012202 | 70 | 191 | 0.0 | 0.0 | 0.00 | 0.00 | 0.00 | 52 | 1009.8 |
| 20260505011700 | 70 | 191 | 0.0 | 0.0 | 0.00 | 0.00 | 0.00 | 53 | 1009.8 |
| 20260505011159 | 70 | 191 | 0.0 | 0.0 | 0.00 | 0.00 | 0.00 | 53 | 1009.9 |
| 20260505010658 | 70 | 186 | 0.0 | 0.0 | 0.00 | 0.00 | 0.00 | 53 | 1009.9 |
| 20260505010027 | 71 | 186 | 0.0 | 0.0 | 0.00 | 0.00 | 0.00 | 52 | 1009.9 |
| 20260505005355 | 71 | 186 | 0.0 | 0.0 | 0.00 | 0.00 | 0.00 | 51 | 1009.9 |
| 20260505004746 | 72 | 186 | 0.0 | 0.0 | 0.00 | 0.00 | 0.00 | 51 | 1009.9 |
| 20260505004118 | 72 | 191 | 0.0 | 0.0 | 0.00 | 0.00 | 0.00 | 49 | 1009.9 |
| 20260505003456 | 73 | 191 | 0.0 | 0.0 | 0.00 | 0.00 | 0.00 | 48 | 1009.9 |
| 20260505002822 | 73 | 195 | 0.0 | 0.0 | 0.00 | 0.00 | 0.00 | 48 | 1009.9 |
| 20260505002206 | 74 | 191 | 0.0 | 0.0 | 0.00 | 0.00 | 0.00 | 47 | 1009.9 |
| 20260505001557 | 74 | 163 | 0.0 | 0.0 | 0.00 | 0.00 | 0.00 | 46 | 1009.9 |
| 20260505000927 | 75 | 231 | 0.0 | 0.0 | 0.00 | 0.00 | 0.00 | 47 | 1009.9 |
| 20260505000251 | 75 | 134 | 0.0 | 1.0 | 0.00 | 0.00 | 0.00 | 45 | 1010.0 |
| 20260504235624 | 75 | 157 | 0.0 | 0.0 | 0.00 | 0.00 | 0.00 | 46 | 1010.0 |
| 20260504235005 | 76 | 165 | 0.0 | 0.0 | 0.00 | 0.00 | 0.00 | 46 | 1010.1 |
| 20260504234345 | 76 | 252 | 0.0 | 3.0 | 0.00 | 0.00 | 0.00 | 45 | 1010.2 |
| 20260504233730 | 77 | 90 | 0.0 | 0.0 | 0.00 | 0.00 | 0.00 | 42 | 1010.2 |
| 20260504233111 | 77 | 205 | 0.0 | 2.0 | 0.00 | 0.00 | 0.00 | 42 | 1010.5 |
| 20260504232453 | 77 | 158 | 0.0 | 0.0 | 0.00 | 0.00 | 0.00 | 43 | 1010.4 |
| 20260504231825 | 78 | 166 | 0.0 | 0.0 | 0.00 | 0.00 | 0.00 | 43 | 1010.5 |
| 20260504231151 | 78 | 201 | 0.0 | 0.0 | 0.00 | 0.00 | 0.00 | 41 | 1010.5 |
| 20260504230541 | 78 | 192 | 0.0 | 0.0 | 0.00 | 0.00 | 0.00 | 42 | 1010.5 |
| 20260504225915 | 78 | 205 | 0.0 | 1.0 | 0.00 | 0.00 | 0.00 | 41 | 1010.5 |
| 20260504225243 | 78 | 148 | 0.0 | 0.0 | 0.00 | 0.00 | 0.00 | 41 | 1010.5 |
| 20260504224631 | 79 | 149 | 0.0 | 3.0 | 0.00 | 0.00 | 0.00 | 41 | 1010.5 |
| 20260504224002 | 79 | 205 | 0.0 | 3.0 | 0.00 | 0.00 | 0.00 | 41 | 1010.5 |
| 20260504223354 | 80 | 117 | 0.0 | 2.0 | 0.00 | 0.00 | 0.00 | 42 | 1010.4 |
| 20260504222745 | 80 | 133 | 0.0 | 0.0 | 0.00 | 0.00 | 0.00 | 40 | 1010.4 |
| 20260504222123 | 80 | 172 | 0.0 | 0.0 | 0.00 | 0.00 | 0.00 | 43 | 1010.5 |
| 20260504221453 | 80 | 202 | 0.0 | 0.0 | 0.00 | 0.00 | 0.00 | 39 | 1010.5 |
| 20260504220815 | 79 | 184 | 0.0 | 2.0 | 0.00 | 0.00 | 0.00 | 39 | 1010.5 |
| 20260504220203 | 80 | 233 | 0.0 | 2.0 | 0.00 | 0.00 | 0.00 | 38 | 1010.5 |
| 20260504215550 | 81 | 162 | 0.0 | 4.0 | 0.00 | 0.00 | 0.00 | 37 | 1010.4 |
| 20260504214942 | 81 | 110 | 1.0 | 4.0 | 0.00 | 0.00 | 0.00 | 38 | 1010.4 |
| 20260504214319 | 82 | 149 | 0.0 | 3.0 | 0.00 | 0.00 | 0.00 | 37 | 1010.2 |
| 20260504213700 | 82 | 170 | 0.0 | 1.0 | 0.00 | 0.00 | 0.00 | 39 | 1010.2 |
| 20260504213026 | 82 | 120 | 0.0 | 2.0 | 0.00 | 0.00 | 0.00 | 38 | 1010.2 |
| 20260504212357 | 82 | 129 | 0.0 | 6.0 | 0.00 | 0.00 | 0.00 | 37 | 1010.2 |
| 20260504211744 | 82 | 139 | 1.0 | 7.0 | 0.00 | 0.00 | 0.00 | 37 | 1010.2 |
| 20260504211122 | 82 | 189 | 1.0 | 7.0 | 0.00 | 0.00 | 0.00 | 37 | 1010.2 |
| 20260504210500 | 82 | 89 | 0.0 | 7.0 | 0.00 | 0.00 | 0.00 | 39 | 1010.3 |
| 20260504205830 | 82 | 120 | 0.0 | 1.0 | 0.00 | 0.00 | 0.00 | 39 | 1010.3 |
| 20260504205153 | 82 | 204 | 1.0 | 6.0 | 0.00 | 0.00 | 0.00 | 37 | 1010.3 |
| 20260504204532 | 82 | 138 | 0.0 | 6.0 | 0.00 | 0.00 | 0.00 | 38 | 1010.6 |
| 20260504203922 | 82 | 73 | 0.0 | 6.0 | 0.00 | 0.00 | 0.00 | 39 | 1010.4 |
| 20260504203253 | 83 | 181 | 0.0 | 5.0 | 0.00 | 0.00 | 0.00 | 38 | 1010.5 |
| 20260504202634 | 83 | 207 | 0.0 | 0.0 | 0.00 | 0.00 | 0.00 | 41 | 1010.6 |
| 20260504202024 | 83 | 236 | 0.0 | 3.0 | 0.00 | 0.00 | 0.00 | 39 | 1010.7 |
| 20260504201411 | 82 | 163 | 0.0 | 3.0 | 0.00 | 0.00 | 0.00 | 39 | 1010.7 |
| 20260504200740 | 82 | 148 | 0.0 | 4.0 | 0.00 | 0.00 | 0.00 | 38 | 1010.9 |
| 20260504200132 | 82 | 162 | 0.0 | 6.0 | 0.00 | 0.00 | 0.00 | 38 | 1010.9 |
| 20260504195512 | 82 | 153 | 1.0 | 6.0 | 0.00 | 0.00 | 0.00 | 38 | 1011.0 |
| 20260504194847 | 82 | 158 | 1.0 | 6.0 | 0.00 | 0.00 | 0.00 | 39 | 1011.1 |
| 20260504194213 | 82 | 154 | 1.0 | 5.0 | 0.00 | 0.00 | 0.00 | 38 | 1011.1 |
| 20260504193548 | 82 | 153 | 0.0 | 2.0 | 0.00 | 0.00 | 0.00 | 38 | 1011.2 |
| 20260504192912 | 82 | 141 | 0.0 | 5.0 | 0.00 | 0.00 | 0.00 | 41 | 1011.3 |
| 20260504192252 | 82 | 122 | 0.0 | 5.0 | 0.00 | 0.00 | 0.00 | 38 | 1011.5 |
| 20260504191639 | 82 | 91 | 0.0 | 7.0 | 0.00 | 0.00 | 0.00 | 40 | 1011.5 |
| 20260504191002 | 82 | 72 | 1.0 | 7.0 | 0.00 | 0.00 | 0.00 | 40 | 1011.6 |
| 20260504190342 | 81 | 164 | 1.0 | 7.0 | 0.00 | 0.00 | 0.00 | 41 | 1011.7 |
| 20260504185820 | 81 | 155 | 0.0 | 7.0 | 0.00 | 0.00 | 0.00 | 38 | 1011.7 |
| 20260504185325 | 81 | 146 | 0.0 | 5.0 | 0.00 | 0.00 | 0.00 | 40 | 1011.8 |
| 20260504184806 | 81 | 162 | 0.0 | 8.0 | 0.00 | 0.00 | 0.00 | 39 | 1012.0 |
| 20260504184247 | 81 | 156 | 0.0 | 8.0 | 0.00 | 0.00 | 0.00 | 40 | 1012.0 |
| 20260504183729 | 81 | 255 | 0.0 | 5.0 | 0.00 | 0.00 | 0.00 | 41 | 1012.1 |
| 20260504183212 | 81 | 147 | 0.0 | 5.0 | 0.00 | 0.00 | 0.00 | 41 | 1012.2 |
| 20260504182708 | 81 | 165 | 0.0 | 2.0 | 0.00 | 0.00 | 0.00 | 40 | 1012.1 |
| 20260504182200 | 81 | 191 | 0.0 | 3.0 | 0.00 | 0.00 | 0.00 | 39 | 1012.2 |
| 20260504181641 | 81 | 150 | 1.0 | 8.0 | 0.00 | 0.00 | 0.00 | 41 | 1012.2 |
| 20260504181141 | 81 | 154 | 1.0 | 5.0 | 0.00 | 0.00 | 0.00 | 45 | 1012.3 |
| 20260504180628 | 81 | 112 | 0.0 | 5.0 | 0.00 | 0.00 | 0.00 | 45 | 1012.2 |
| 20260504180114 | 81 | 37 | 0.0 | 3.0 | 0.00 | 0.00 | 0.00 | 40 | 1012.3 |
| 20260504175556 | 81 | 117 | 0.0 | 5.0 | 0.00 | 0.00 | 0.00 | 42 | 1012.3 |
| 20260504175038 | 80 | 163 | 0.0 | 5.0 | 0.00 | 0.00 | 0.00 | 43 | 1012.5 |
| 20260504174540 | 80 | 212 | 0.0 | 8.0 | 0.00 | 0.00 | 0.00 | 43 | 1012.5 |
| 20260504174037 | 80 | 117 | 0.0 | 8.0 | 0.00 | 0.00 | 0.00 | 45 | 1012.4 |
| 20260504173538 | 80 | 188 | 1.0 | 8.0 | 0.00 | 0.00 | 0.00 | 44 | 1012.6 |
| 20260504173031 | 80 | 60 | 0.0 | 8.0 | 0.00 | 0.00 | 0.00 | 44 | 1012.7 |
| 20260504172513 | 80 | 236 | 0.0 | 3.0 | 0.00 | 0.00 | 0.00 | 45 | 1012.7 |
| 20260504172009 | 80 | 117 | 0.0 | 3.0 | 0.00 | 0.00 | 0.00 | 43 | 1012.8 |
| 20260504171512 | 80 | 101 | 0.0 | 5.0 | 0.00 | 0.00 | 0.00 | 43 | 1012.9 |
| 20260504171002 | 80 | 141 | 0.0 | 5.0 | 0.00 | 0.00 | 0.00 | 46 | 1013.0 |
| 20260504170447 | 79 | 107 | 0.0 | 7.0 | 0.00 | 0.00 | 0.00 | 46 | 1013.0 |
| 20260504160316 | 76 | 188 | 0.0 | 4.0 | 0.00 | 0.00 | 0.00 | 51 | 1013.9 |
| 20260504150643 | 73 | 209 | 0.0 | 4.0 | 0.00 | 0.00 | 0.00 | 55 | 1014.1 |
| 20260504150134 | 73 | 34 | 0.0 | 4.0 | 0.00 | 0.00 | 0.00 | 55 | 1014.2 |
| 20260504141029 | 67 | 123 | 0.0 | 0.0 | 0.00 | 0.00 | 0.00 | 67 | 1014.5 |
| 20260504140510 | 66 | 125 | 0.0 | 0.0 | 0.00 | 0.00 | 0.00 | 69 | 1014.6 |
| 20260504130743 | 61 | 189 | 0.0 | 0.0 | 0.00 | 0.00 | 0.00 | 75 | 1014.6 |
| 20260504130228 | 60 | 186 | 0.0 | 0.0 | 0.00 | 0.00 | 0.00 | 76 | 1014.5 |
| 20260504120132 | 53 | 185 | 0.0 | 0.0 | 0.00 | 0.00 | 0.00 | 86 | 1014.3 |
| 20260504110540 | 52 | 186 | 0.0 | 0.0 | 0.00 | 0.00 | 0.00 | 83 | 1014.0 |
| 20260504100456 | 52 | 186 | 0.0 | 0.0 | 0.00 | 0.00 | 0.00 | 83 | 1014.0 |